Home > Weather > Rapid City > Past weeks

Flag for USA Weather for the Past 2 Weeks in Rapid City, South Dakota, USA

Now
45 °F

Overcast.


Feels Like: 40 °F
Forecast: 37 / 44 °F
Wind: 9 mph from Northeast

Location: Ellsworth Air Force Base

Current Time: Apr 29, 2016 at 6:30:33 PM

Latest Report: Apr 29, 2016 at 5:58 PM


Visibility: 10 mi

Pressure: 30.08 "Hg (26.70 "Hg at 977m altitude)

Humidity: 69%

Dew Point: 35 °F

Location of Rapid CityLocation

Historic Weather in Rapid City — Graph

°F

Rapid City Temperature Yesterday

Maximum temperature yesterday: 41 °F (at 3:03 PM)
Minimum temperature yesterday: 32 °F (at 2:59 AM)
Average temperature yesterday: 36 °F

High & Low Weather Summary for the Past Weeks

 TemperatureHumidityPressure
High80 °F (Apr 22, 4:58 PM)100% (Apr 15, 2:58 AM)30.45 "Hg (Apr 15, 2:58 AM)
Low32 °F (Apr 17, 4:59 AM)25% (Apr 22, 4:58 PM)29.36 "Hg (Apr 23, 11:58 PM)
Average45 °F81%29.97 "Hg
* Reported Apr 14 4:58 PM — Apr 29 4:58 PM, Rapid City, Weather by CustomWeather, © 2016

Note: Actual official high and low records may vary slightly from our data, if they occured in-between our weather recording intervals... More about our weather records

Advertising

Rapid City Weather History for the Previous 24 Hours

Scroll right to see more
 ConditionsComfort  
Time TempWeatherWind HumidityBarometerVisibility
4:58 PM
Fri, Apr 29
45 °FOvercast.8 mph69%30.09 "Hg10 mi
3:58 PM44 °FOvercast.5 mph72%30.11 "Hg10 mi
2:58 PM43 °FOvercast.5 mph73%30.12 "Hg10 mi
1:58 PM43 °FOvercast.8 mph73%30.14 "Hg10 mi
1:03 PM43 °FMostly cloudy.7 mph76%30.07 "Hg10 mi
11:58 AM41 °FOvercast.3 mph84%30.14 "Hg10 mi
10:58 AM39 °FLow clouds.5 mph91%30.16 "Hg10 mi
9:58 AM38 °FLow clouds.2 mph97%30.16 "Hg10 mi
8:58 AM37 °FLow clouds.6 mph100%30.16 "Hg10 mi
7:58 AM37 °FLow clouds.5 mph100%30.09 "Hg10 mi
6:58 AM36 °FLow clouds.1 mph100%30.19 "Hg10 mi
6:04 AM36 °FLight rain. Overcast.3 mph100%30.10 "Hg10 mi
5:58 AM36 °FLow clouds.3 mph100%30.19 "Hg10 mi
4:58 AM36 °FLow clouds.5 mph100%30.19 "Hg10 mi
3:58 AM36 °FMostly cloudy.No wind100%30.16 "Hg10 mi
2:58 AM36 °FOvercast.2 mph99%30.16 "Hg10 mi
1:58 AM37 °FMostly cloudy.7 mph97%30.16 "Hg10 mi
12:58 AM37 °FMostly cloudy.2 mph95%30.19 "Hg10 mi
12:03 AM37 °FMostly cloudy.2 mph100%30.12 "Hg10 mi
10:58 PM
Thu, Apr 28
37 °FMostly cloudy.5 mph100%30.19 "Hg10 mi
9:58 PM37 °FMostly cloudy.1 mph97%30.21 "Hg10 mi
8:58 PM37 °FMostly cloudy.3 mph95%30.20 "Hg10 mi
6:58 PM38 °FOvercast.8 mph91%30.18 "Hg10 mi
Weather by CustomWeather, © 2016

See weather overviewHow to use our weather pages